Station Historical Data
Daily Summary for August 16, 2017 Units:  Metric    English   Both
« Previous Day
Next Day »
Daily Weekly Monthly Yearly Custom
  High: Low: Average:
Temperature: 31.8 °C 22.3 °C 26.9 °C
Dew Point: 23.8 °C 20.9 °C 22.6 °C
Humidity: 93% 58% 79%
Wind Speed: 1.6km/h 0km/h 0km/h
Wind Gust: 8km/h - -
Wind- - SW
Pressure: 1018.8 hPa 1014.8 hPa -
Precipitation: 0 mm    
Historical Graphs
 
 
Tabular Data for August 16, 2017
Time Temperature Dew Point Pressure Wind Wind Speed Wind Gust Humidity Rainfall Rate (Hourly) solar Conditions
00:00 24.7 °C 22.4 °C 1015.1 hPa Calm     87% 0 mm WeatherDisplay:10.37 W/m2 BKN
00:05 24.7 °C 22.4 °C 1015.1 hPa Calm     87% 0 mm WeatherDisplay:10.37 W/m2 BKN
00:10 24.7 °C 22.6 °C 1015.1 hPa Calm     88% 0 mm WeatherDisplay:10.37 W/m2 BKN
00:15 24.7 °C 22.3 °C 1015.1 hPa Calm     87% 0 mm WeatherDisplay:10.37 W/m2 SCT
00:20 24.7 °C 22.6 °C 1015.1 hPa Calm     88% 0 mm WeatherDisplay:10.37 W/m2 SCT
00:25 24.7 °C 22.6 °C 1015.1 hPa Calm     88% 0 mm WeatherDisplay:10.37 W/m2 SCT
00:30 24.6 °C 22.5 °C 1015.1 hPa Calm     88% 0 mm WeatherDisplay:10.37 W/m2 SCT
00:35 24.6 °C 22.4 °C 1015.1 hPa Calm     88% 0 mm WeatherDisplay:10.37 W/m2 SCT
00:40 24.5 °C 22.4 °C 1014.8 hPa Calm     88% 0 mm WeatherDisplay:10.37 W/m2 SCT
00:45 24.5 °C 22.4 °C 1014.8 hPa Calm     88% 0 mm WeatherDisplay:10.37 W/m2 SCT
00:50 24.4 °C 22.3 °C 1014.8 hPa Calm     88% 0 mm WeatherDisplay:10.37 W/m2 SCT
00:55 24.4 °C 22.3 °C 1015.1 hPa Calm     88% 0 mm WeatherDisplay:10.37 W/m2 SCT
01:00 24.4 °C 22.3 °C 1015.1 hPa Calm     88% 0 mm WeatherDisplay:10.37 W/m2 SCT
01:05 24.3 °C 22.4 °C 1015.1 hPa Calm     89% 0 mm WeatherDisplay:10.37 W/m2 SCT
01:10 24.3 °C 22.3 °C 1015.1 hPa Calm     89% 0 mm WeatherDisplay:10.37 W/m2 SCT
01:15 24.2 °C 22.3 °C 1015.5 hPa Calm     89% 0 mm WeatherDisplay:10.37 W/m2 CLR
01:20 24.2 °C 22.2 °C 1015.1 hPa Calm     89% 0 mm WeatherDisplay:10.37 W/m2 CLR
01:25 24.1 °C 22.2 °C 1015.1 hPa Calm     89% 0 mm WeatherDisplay:10.37 W/m2 CLR
01:30 24.1 °C 22.1 °C 1015.1 hPa Calm     89% 0 mm WeatherDisplay:10.37 W/m2 CLR
01:35 24.1 °C 22.1 °C 1015.1 hPa Calm     89% 0 mm WeatherDisplay:10.37 W/m2 CLR
01:40 24 °C 22.2 °C 1015.1 hPa Calm     90% 0 mm WeatherDisplay:10.37 W/m2 CLR
01:45 23.9 °C 22.2 °C 1015.1 hPa Calm     90% 0 mm WeatherDisplay:10.37 W/m2 CLR
01:50 23.9 °C 22.2 °C 1015.1 hPa Calm     90% 0 mm WeatherDisplay:10.37 W/m2 CLR
01:55 23.8 °C 22.1 °C 1015.5 hPa Calm     90% 0 mm WeatherDisplay:10.37 W/m2 CLR
02:00 23.8 °C 22.1 °C 1015.5 hPa Calm     90% 0 mm WeatherDisplay:10.37 W/m2 CLR
02:05 23.8 °C 22.1 °C 1015.5 hPa Calm     90% 0 mm WeatherDisplay:10.37 W/m2 CLR
02:10 23.8 °C 22.1 °C 1015.5 hPa Calm     90% 0 mm WeatherDisplay:10.37 W/m2 CLR
02:15 23.8 °C 22.3 °C 1015.5 hPa Calm     91% 0 mm WeatherDisplay:10.37 W/m2 BKN
02:20 23.8 °C 22.3 °C 1015.5 hPa Calm     91% 0 mm WeatherDisplay:10.37 W/m2 BKN
02:25 23.9 °C 22.3 °C 1015.5 hPa Calm     91% 0 mm WeatherDisplay:10.37 W/m2 BKN
02:30 23.9 °C 22.3 °C 1015.5 hPa Calm     91% 0 mm WeatherDisplay:10.37 W/m2 BKN
02:35 23.9 °C 22.4 °C 1015.5 hPa Calm     91% 0 mm WeatherDisplay:10.37 W/m2 BKN
02:40 24 °C 22.4 °C 1015.5 hPa Calm     91% 0 mm WeatherDisplay:10.37 W/m2 BKN
02:45 24 °C 22.4 °C 1015.5 hPa Calm     91% 0 mm WeatherDisplay:10.37 W/m2 BKN
02:50 24.1 °C 22.3 °C 1015.5 hPa Calm     90% 0 mm WeatherDisplay:10.37 W/m2 BKN
02:55 24.1 °C 22.3 °C 1015.5 hPa Calm     90% 0 mm WeatherDisplay:10.37 W/m2 FEW
03:00 24.1 °C 22.3 °C 1015.5 hPa Calm     90% 0 mm WeatherDisplay:10.37 W/m2 FEW
03:05 24.1 °C 22.3 °C 1015.5 hPa Calm     90% 0 mm WeatherDisplay:10.37 W/m2 FEW
03:10 24.1 °C 22.3 °C 1015.5 hPa Calm     90% 0 mm WeatherDisplay:10.37 W/m2 FEW
03:25 24 °C 22.3 °C 1015.8 hPa Calm     90% 0 mm WeatherDisplay:10.37 W/m2 BKN
03:30 23.9 °C 22.2 °C 1015.8 hPa Calm     90% 0 mm WeatherDisplay:10.37 W/m2 BKN
03:35 23.9 °C 22.2 °C 1015.8 hPa Calm     90% 0 mm WeatherDisplay:10.37 W/m2 BKN
03:40 23.9 °C 22.2 °C 1015.8 hPa Calm     90% 0 mm WeatherDisplay:10.37 W/m2 BKN
03:45 23.9 °C 22.2 °C 1015.8 hPa Calm     90% 0 mm WeatherDisplay:10.37 W/m2 BKN
03:50 23.8 °C 22.1 °C 1015.8 hPa Calm     90% 0 mm WeatherDisplay:10.37 W/m2 BKN
03:55 23.8 °C 22.1 °C 1015.8 hPa Calm     90% 0 mm WeatherDisplay:10.37 W/m2 BKN
04:00 23.8 °C 22.1 °C 1015.8 hPa Calm     90% 0 mm WeatherDisplay:10.37 W/m2 BKN
04:05 23.7 °C 22 °C 1015.8 hPa Calm     90% 0 mm WeatherDisplay:10.37 W/m2 BKN
04:10 23.7 °C 21.7 °C 1015.8 hPa Calm     89% 0 mm WeatherDisplay:10.37 W/m2 BKN
04:15 23.6 °C 21.7 °C 1015.8 hPa Calm     89% 0 mm WeatherDisplay:10.37 W/m2 BKN
04:20 23.6 °C 21.6 °C 1015.8 hPa Calm     89% 0 mm WeatherDisplay:10.37 W/m2 BKN
04:30 23.4 °C 21.5 °C 1015.8 hPa Calm     89% 0 mm WeatherDisplay:10.37 W/m2 BKN
04:35 23.4 °C 21.4 °C 1015.8 hPa Calm     89% 0 mm WeatherDisplay:10.37 W/m2 BKN
04:40 23.3 °C 21.4 °C 1015.8 hPa Calm     89% 0 mm WeatherDisplay:10.37 W/m2 BKN
04:45 23.3 °C 21.4 °C 1015.8 hPa Calm     89% 0 mm WeatherDisplay:10.37 W/m2 BKN
04:50 23.3 °C 21.3 °C 1015.8 hPa Calm     89% 0 mm WeatherDisplay:10.37 W/m2 BKN
04:55 23.2 °C 21.3 °C 1015.8 hPa Calm     89% 0 mm WeatherDisplay:10.37 W/m2 BKN
05:00 23.2 °C 21.3 °C 1015.8 hPa Calm     89% 0 mm WeatherDisplay:10.37 W/m2 BKN
05:05 23.1 °C 21.4 °C 1015.8 hPa Calm     90% 0 mm WeatherDisplay:10.37 W/m2 BKN
05:10 23.1 °C 21.3 °C 1016.1 hPa Calm     90% 0 mm WeatherDisplay:10.37 W/m2 BKN
05:15 23.1 °C 21.3 °C 1016.1 hPa Calm     90% 0 mm WeatherDisplay:10.37 W/m2 BKN
05:20 23 °C 21.3 °C 1016.1 hPa Calm     90% 0 mm WeatherDisplay:10.37 W/m2 BKN
05:25 22.9 °C 21.2 °C 1016.1 hPa Calm     90% 0 mm WeatherDisplay:10.37 W/m2 BKN
05:35 22.8 °C 21.1 °C 1016.1 hPa Calm     90% 0 mm WeatherDisplay:10.37 W/m2 BKN
05:40 22.8 °C 21.1 °C 1016.1 hPa Calm     90% 0 mm WeatherDisplay:10.37 W/m2 BKN
05:45 22.7 °C 21 °C 1016.1 hPa Calm     90% 0 mm WeatherDisplay:10.37 W/m2 BKN
05:50 22.7 °C 21.1 °C 1016.5 hPa Calm     91% 0 mm WeatherDisplay:10.37 W/m2 BKN
05:55 22.6 °C 21.1 °C 1016.5 hPa Calm     91% 0 mm WeatherDisplay:10.37 W/m2 BKN
06:00 22.6 °C 21.1 °C 1016.5 hPa Calm     91% 0 mm WeatherDisplay:10.37 W/m2 BKN
06:05 22.6 °C 21 °C 1016.5 hPa Calm     91% 0 mm WeatherDisplay:10.37 W/m2 BKN
06:10 22.5 °C 20.9 °C 1016.5 hPa Calm     91% 0 mm WeatherDisplay:10.37 W/m2 BKN
06:15 22.5 °C 21.1 °C 1016.8 hPa Calm     92% 0 mm WeatherDisplay:10.37 W/m2 SCT
06:20 22.4 °C 21.1 °C 1016.8 hPa Calm     92% 0 mm WeatherDisplay:10.37 W/m2 SCT
06:25 22.4 °C 21.1 °C 1016.8 hPa Calm     92% 0 mm WeatherDisplay:10.37 W/m2 SCT
06:30 22.4 °C 21 °C 1016.8 hPa Calm     92% 0 mm WeatherDisplay:10.37 W/m2 SCT
06:35 22.4 °C 21 °C 1017.2 hPa Calm     92% 0 mm WeatherDisplay:10.37 W/m2 SCT
06:40 22.3 °C 21 °C 1017.2 hPa Calm     92% 0 mm WeatherDisplay:10.37 W/m2 SCT
06:45 22.3 °C 20.9 °C 1017.2 hPa Calm     92% 0 mm WeatherDisplay:10.37 W/m2 SCT
06:50 22.3 °C 20.9 °C 1017.2 hPa Calm     92% 0 mm WeatherDisplay:10.37 W/m2 SCT
06:55 22.3 °C 20.9 °C 1017.5 hPa Calm     92% 0 mm WeatherDisplay:10.37 W/m2 SCT
07:00 22.3 °C 20.9 °C 1017.5 hPa Calm     92% 0 mm WeatherDisplay:10.37 W/m2 SCT
07:10 22.4 °C 21 °C 1017.5 hPa Calm     92% 0 mm WeatherDisplay:10.37 W/m2 SCT
07:15 22.4 °C 21.3 °C 1017.5 hPa Calm     93% 0 mm WeatherDisplay:10.37 W/m2 BKN
07:25 22.5 °C 21.3 °C 1017.8 hPa Calm     93% 0 mm WeatherDisplay:10.37 W/m2 BKN
07:30 22.6 °C 21.3 °C 1017.8 hPa Calm     93% 0 mm WeatherDisplay:10.37 W/m2 BKN
07:35 22.6 °C 21.4 °C 1017.8 hPa Calm     93% 0 mm WeatherDisplay:10.37 W/m2 BKN
07:40 22.6 °C 21.4 °C 1017.8 hPa Calm     93% 0 mm WeatherDisplay:10.37 W/m2 BKN
07:45 22.7 °C 21.3 °C 1017.8 hPa Calm     92% 0 mm WeatherDisplay:10.37 W/m2 BKN
07:55 22.8 °C 21.4 °C 1017.8 hPa Calm     92% 0 mm WeatherDisplay:10.37 W/m2 BKN
08:00 22.8 °C 21.4 °C 1017.8 hPa Calm     92% 0 mm WeatherDisplay:10.37 W/m2 BKN
08:10 22.9 °C 21.6 °C 1017.8 hPa Calm     92% 0 mm WeatherDisplay:10.37 W/m2 BKN
08:15 23 °C 21.7 °C 1018.2 hPa Calm     92% 0 mm WeatherDisplay:10.37 W/m2 OVC
08:20 23.1 °C 21.5 °C 1018.2 hPa Calm     91% 0 mm WeatherDisplay:10.37 W/m2 OVC
08:25 23.2 °C 21.6 °C 1018.2 hPa Calm     91% 0 mm WeatherDisplay:10.37 W/m2 OVC
08:30 23.2 °C 21.7 °C 1018.2 hPa Calm     91% 0 mm WeatherDisplay:10.37 W/m2 OVC
08:40 23.4 °C 21.8 °C 1018.2 hPa Calm     91% 0 mm WeatherDisplay:10.37 W/m2 OVC
08:45 23.4 °C 21.9 °C 1018.2 hPa Calm     91% 0 mm WeatherDisplay:10.37 W/m2 OVC
08:50 23.5 °C 21.9 °C 1018.2 hPa Calm     91% 0 mm WeatherDisplay:10.37 W/m2 OVC
08:55 23.6 °C 21.8 °C 1018.5 hPa Calm     90% 0 mm WeatherDisplay:10.37 W/m2 OVC
09:00 23.6 °C 21.8 °C 1018.5 hPa Calm     90% 0 mm WeatherDisplay:10.37 W/m2 OVC
09:05 23.7 °C 21.9 °C 1018.5 hPa Calm     90% 0 mm WeatherDisplay:10.37 W/m2 OVC
09:10 23.8 °C 22.1 °C 1018.5 hPa Calm   1.6 km/h 90% 0 mm WeatherDisplay:10.37 W/m2 OVC
09:15 24 °C 22.3 °C 1018.5 hPa Calm   1.6 km/h 90% 0 mm WeatherDisplay:10.37 W/m2 BKN
09:20 24.3 °C 22.3 °C 1018.5 hPa Calm     89% 0 mm WeatherDisplay:10.37 W/m2 BKN
09:25 24.6 °C 22.3 °C 1018.5 hPa Calm   1.6 km/h 87% 0 mm WeatherDisplay:10.37 W/m2 BKN
09:30 24.9 °C 22.7 °C 1018.5 hPa Calm   1.6 km/h 87% 0 mm WeatherDisplay:10.37 W/m2 BKN
09:35 25.2 °C 22.7 °C 1018.5 hPa Calm   3.2 km/h 86% 0 mm WeatherDisplay:10.37 W/m2 BKN
09:40 25.3 °C 22.6 °C 1018.5 hPa Calm   1.6 km/h 85% 0 mm WeatherDisplay:10.37 W/m2 BKN
09:45 25.6 °C 22.8 °C 1018.5 hPa Calm   1.6 km/h 85% 0 mm WeatherDisplay:10.37 W/m2 BKN
09:50 25.8 °C 22.9 °C 1018.5 hPa Calm   3.2 km/h 84% 0 mm WeatherDisplay:10.37 W/m2 BKN
10:00 26.3 °C 22.9 °C 1018.8 hPa Calm   3.2 km/h 82% 0 mm WeatherDisplay:10.37 W/m2 BKN
10:05 26.5 °C 22.9 °C 1018.8 hPa WSW 1.6 km/h 3.2 km/h 81% 0 mm WeatherDisplay:10.37 W/m2 BKN
10:10 26.7 °C 22.9 °C 1018.8 hPa Calm   1.6 km/h 80% 0 mm WeatherDisplay:10.37 W/m2 BKN
10:15 26.9 °C 23 °C 1018.5 hPa Calm   3.2 km/h 79% 0 mm WeatherDisplay:10.37 W/m2 BKN
10:20 27.1 °C 22.9 °C 1018.5 hPa WSW 1.6 km/h 4.8 km/h 78% 0 mm WeatherDisplay:10.37 W/m2 BKN
10:25 27.2 °C 23.3 °C 1018.5 hPa Calm   3.2 km/h 79% 0 mm WeatherDisplay:10.37 W/m2 BKN
10:30 27.3 °C 23.2 °C 1018.5 hPa Calm   1.6 km/h 78% 0 mm WeatherDisplay:10.37 W/m2 BKN
10:35 27.4 °C 23.3 °C 1018.5 hPa Calm   1.6 km/h 78% 0 mm WeatherDisplay:10.37 W/m2 BKN
10:40 27.6 °C 23.2 °C 1018.5 hPa Calm   3.2 km/h 77% 0 mm WeatherDisplay:10.37 W/m2 BKN
10:45 27.7 °C 23.3 °C 1018.5 hPa Calm   1.6 km/h 77% 0 mm WeatherDisplay:10.37 W/m2 BKN
10:50 27.8 °C 23.2 °C 1018.5 hPa Calm   1.6 km/h 76% 0 mm WeatherDisplay:10.37 W/m2 BKN
10:55 27.9 °C 23.3 °C 1018.5 hPa Calm   3.2 km/h 76% 0 mm WeatherDisplay:10.37 W/m2 BKN
11:00 27.9 °C 23.1 °C 1018.5 hPa NE 1.6 km/h 3.2 km/h 75% 0 mm WeatherDisplay:10.37 W/m2 BKN
11:05 27.9 °C 23.3 °C 1018.2 hPa Calm   3.2 km/h 76% 0 mm WeatherDisplay:10.37 W/m2 BKN
11:10 27.9 °C 23.3 °C 1018.2 hPa Calm   3.2 km/h 76% 0 mm WeatherDisplay:10.37 W/m2 BKN
11:15 28.1 °C 23.5 °C 1018.5 hPa Calm   1.6 km/h 76% 0 mm WeatherDisplay:10.37 W/m2 SCT
11:20 28.3 °C 22.8 °C 1018.5 hPa West 1.6 km/h 3.2 km/h 72% 0 mm WeatherDisplay:10.37 W/m2 SCT
11:25 28.5 °C 23.2 °C 1018.2 hPa Calm   1.6 km/h 73% 0 mm WeatherDisplay:10.37 W/m2 SCT
11:30 28.7 °C 23.3 °C 1018.2 hPa Calm   3.2 km/h 73% 0 mm WeatherDisplay:10.37 W/m2 SCT
11:35 28.8 °C 23.5 °C 1018.2 hPa Calm   1.6 km/h 73% 0 mm WeatherDisplay:10.37 W/m2 SCT
11:40 29 °C 23.2 °C 1018.2 hPa West 1.6 km/h 3.2 km/h 71% 0 mm WeatherDisplay:10.37 W/m2 SCT
11:45 29.1 °C 22.8 °C 1018.5 hPa Calm   4.8 km/h 69% 0 mm WeatherDisplay:10.37 W/m2 SCT
11:50 29 °C 23.4 °C 1018.2 hPa Calm   4.8 km/h 72% 0 mm WeatherDisplay:10.37 W/m2 SCT
11:55 29 °C 22.9 °C 1018.2 hPa Calm   1.6 km/h 70% 0 mm WeatherDisplay:10.37 W/m2 SCT
12:00 28.9 °C 23.2 °C 1018.2 hPa NW 1.6 km/h 1.6 km/h 71% 0 mm WeatherDisplay:10.37 W/m2 SCT
12:05 29.1 °C 23.5 °C 1018.2 hPa Calm   1.6 km/h 72% 0 mm WeatherDisplay:10.37 W/m2 SCT
12:10 29.3 °C 23.1 °C 1018.2 hPa Calm   1.6 km/h 69% 0 mm WeatherDisplay:10.37 W/m2 SCT
12:15 29.5 °C 23.2 °C 1018.2 hPa Calm   1.6 km/h 69% 0 mm WeatherDisplay:10.37 W/m2 BKN
12:20 29.8 °C 23.2 °C 1018.2 hPa Calm   3.2 km/h 68% 0 mm WeatherDisplay:10.37 W/m2 BKN
12:25 30.1 °C 23.2 °C 1018.2 hPa WSW 1.6 km/h 3.2 km/h 67% 0 mm WeatherDisplay:10.37 W/m2 BKN
12:30 30.4 °C 23.1 °C 1018.2 hPa Calm   3.2 km/h 65% 0 mm WeatherDisplay:10.37 W/m2 BKN
12:35 30.9 °C 23.3 °C 1018.2 hPa Calm   3.2 km/h 64% 0 mm WeatherDisplay:10.37 W/m2 BKN
12:40 31.2 °C 23.6 °C 1018.2 hPa Calm   1.6 km/h 64% 0 mm WeatherDisplay:10.37 W/m2 BKN
12:45 31.4 °C 23.3 °C 1018.2 hPa Calm   3.2 km/h 62% 0 mm WeatherDisplay:10.37 W/m2 BKN
12:50 31.8 °C 23.3 °C 1018.2 hPa WNW 1.6 km/h 3.2 km/h 61% 0 mm WeatherDisplay:10.37 W/m2 BKN
12:55 31.8 °C 23.1 °C 1018.2 hPa ENE 1.6 km/h 3.2 km/h 60% 0 mm WeatherDisplay:10.37 W/m2 BKN
13:00 31.8 °C 22.8 °C 1018.2 hPa Calm   4.8 km/h 59% 0 mm WeatherDisplay:10.37 W/m2 BKN
13:05 31.7 °C 22.9 °C 1018.2 hPa Calm   8 km/h 60% 0 mm WeatherDisplay:10.37 W/m2 BKN
13:10 31.4 °C 22.7 °C 1017.8 hPa Calm   3.2 km/h 60% 0 mm WeatherDisplay:10.37 W/m2 BKN
13:15 31.3 °C 23.4 °C 1018.2 hPa Calm   1.6 km/h 63% 0 mm WeatherDisplay:10.37 W/m2 BKN
13:20 31.2 °C 23.1 °C 1018.2 hPa Calm   4.8 km/h 62% 0 mm WeatherDisplay:10.37 W/m2 BKN
13:25 30.8 °C 22.7 °C 1018.2 hPa Calm   3.2 km/h 62% 0 mm WeatherDisplay:10.37 W/m2 BKN
13:30 30.7 °C 23.1 °C 1017.8 hPa Calm   1.6 km/h 64% 0 mm WeatherDisplay:10.37 W/m2 BKN
13:35 30.9 °C 23.1 °C 1017.8 hPa Calm   3.2 km/h 63% 0 mm WeatherDisplay:10.37 W/m2 BKN
13:40 31.2 °C 22.8 °C 1017.8 hPa Calm   1.6 km/h 61% 0 mm WeatherDisplay:10.37 W/m2 BKN
13:45 31.4 °C 22.7 °C 1017.8 hPa Calm     60% 0 mm WeatherDisplay:10.37 W/m2 BKN
13:50 31.6 °C 23.1 °C 1017.8 hPa Calm   3.2 km/h 61% 0 mm WeatherDisplay:10.37 W/m2 BKN
13:55 31.7 °C 22.4 °C 1017.8 hPa Calm   3.2 km/h 58% 0 mm WeatherDisplay:10.37 W/m2 BKN
14:00 31.7 °C 22.9 °C 1017.5 hPa Calm   8 km/h 60% 0 mm WeatherDisplay:10.37 W/m2 BKN
14:05 31.6 °C 23.7 °C 1017.5 hPa Calm   1.6 km/h 63% 0 mm WeatherDisplay:10.37 W/m2 BKN
14:10 31.6 °C 22.7 °C 1017.5 hPa WSW 1.6 km/h 4.8 km/h 59% 0 mm WeatherDisplay:10.37 W/m2 BKN
14:15 31.6 °C 23.4 °C 1017.5 hPa Calm   4.8 km/h 62% 0 mm WeatherDisplay:10.37 W/m2 BKN
14:20 31.7 °C 23 °C 1017.5 hPa Calm   3.2 km/h 60% 0 mm WeatherDisplay:10.37 W/m2 BKN
14:25 31.5 °C 22.8 °C 1017.2 hPa Calm   4.8 km/h 60% 0 mm WeatherDisplay:10.37 W/m2 BKN
14:30 31.5 °C 23.6 °C 1017.2 hPa Calm   1.6 km/h 63% 0 mm WeatherDisplay:10.37 W/m2 BKN
14:40 31.7 °C 23.6 °C 1017.2 hPa Calm   1.6 km/h 62% 0 mm WeatherDisplay:10.37 W/m2 BKN
14:45 31.5 °C 23.1 °C 1017.2 hPa Calm   3.2 km/h 61% 0 mm WeatherDisplay:10.37 W/m2 BKN
14:50 31.2 °C 23.6 °C 1016.8 hPa Calm     64% 0 mm WeatherDisplay:10.37 W/m2 BKN
14:55 31.2 °C 23 °C 1016.8 hPa Calm   3.2 km/h 62% 0 mm WeatherDisplay:10.37 W/m2 BKN
15:00 31.3 °C 22.6 °C 1016.8 hPa Calm   1.6 km/h 60% 0 mm WeatherDisplay:10.37 W/m2 BKN
15:05 31.3 °C 22.8 °C 1016.8 hPa Calm   1.6 km/h 61% 0 mm WeatherDisplay:10.37 W/m2 BKN
15:10 31.2 °C 22.8 °C 1016.8 hPa WNW 1.6 km/h 4.8 km/h 61% 0 mm WeatherDisplay:10.37 W/m2 BKN
15:15 31.3 °C 23.4 °C 1016.8 hPa Calm   1.6 km/h 63% 0 mm WeatherDisplay:10.37 W/m2 BKN
15:20 31.5 °C 23.1 °C 1016.8 hPa Calm   1.6 km/h 61% 0 mm WeatherDisplay:10.37 W/m2 BKN
15:25 31.5 °C 22.8 °C 1016.8 hPa West 1.6 km/h 4.8 km/h 60% 0 mm WeatherDisplay:10.37 W/m2 BKN
15:30 31.4 °C 22.7 °C 1016.5 hPa Calm   1.6 km/h 60% 0 mm WeatherDisplay:10.37 W/m2 BKN
15:35 31.4 °C 22.9 °C 1016.8 hPa Calm   1.6 km/h 61% 0 mm WeatherDisplay:10.37 W/m2 BKN
15:40 31.2 °C 23 °C 1016.5 hPa Calm   1.6 km/h 62% 0 mm WeatherDisplay:10.37 W/m2 BKN
15:45 31 °C 23.1 °C 1016.5 hPa Calm   1.6 km/h 63% 0 mm WeatherDisplay:10.37 W/m2 BKN
15:50 30.9 °C 23.3 °C 1016.5 hPa ENE 1.6 km/h 3.2 km/h 64% 0 mm WeatherDisplay:10.37 W/m2 BKN
15:55 31 °C 23.4 °C 1016.1 hPa Calm   1.6 km/h 64% 0 mm WeatherDisplay:10.37 W/m2 BKN
16:00 31.2 °C 22.8 °C 1016.1 hPa Calm   1.6 km/h 61% 0 mm WeatherDisplay:10.37 W/m2 BKN
16:10 31.4 °C 23.5 °C 1016.1 hPa Calm   1.6 km/h 63% 0 mm WeatherDisplay:10.37 W/m2 BKN
16:15 31.6 °C 23.1 °C 1016.1 hPa Calm   1.6 km/h 61% 0 mm WeatherDisplay:10.37 W/m2 BKN
16:20 31.6 °C 23.4 °C 1016.1 hPa Calm   4.8 km/h 62% 0 mm WeatherDisplay:10.37 W/m2 BKN
16:25 31.6 °C 22.8 °C 1015.8 hPa Calm   4.8 km/h 60% 0 mm WeatherDisplay:10.37 W/m2 BKN
16:30 31.6 °C 23.4 °C 1015.8 hPa Calm     62% 0 mm WeatherDisplay:10.37 W/m2 BKN
16:35 31.6 °C 23.1 °C 1015.8 hPa Calm   3.2 km/h 61% 0 mm WeatherDisplay:10.37 W/m2 BKN
16:40 31.3 °C 23.2 °C 1015.8 hPa Calm     62% 0 mm WeatherDisplay:10.37 W/m2 BKN
16:45 31.1 °C 23.2 °C 1015.8 hPa Calm     63% 0 mm WeatherDisplay:10.37 W/m2 BKN
16:50 30.9 °C 23 °C 1015.8 hPa Calm   1.6 km/h 63% 0 mm WeatherDisplay:10.37 W/m2 BKN
16:55 30.9 °C 23 °C 1015.8 hPa Calm   1.6 km/h 63% 0 mm WeatherDisplay:10.37 W/m2 BKN
17:00 30.8 °C 23.2 °C 1015.5 hPa Calm   3.2 km/h 64% 0 mm WeatherDisplay:10.37 W/m2 BKN
17:05 30.9 °C 23.6 °C 1015.5 hPa Calm   1.6 km/h 65% 0 mm WeatherDisplay:10.37 W/m2 BKN
17:10 30.9 °C 23.3 °C 1015.5 hPa Calm   1.6 km/h 64% 0 mm WeatherDisplay:10.37 W/m2 BKN
17:15 30.8 °C 23.2 °C 1015.5 hPa Calm   1.6 km/h 64% 0 mm WeatherDisplay:10.37 W/m2 BKN
17:20 30.8 °C 23.7 °C 1015.5 hPa Calm   1.6 km/h 66% 0 mm WeatherDisplay:10.37 W/m2 BKN
17:25 30.7 °C 23.8 °C 1015.1 hPa Calm   1.6 km/h 67% 0 mm WeatherDisplay:10.37 W/m2 BKN
17:30 30.6 °C 23.6 °C 1015.1 hPa Calm   1.6 km/h 66% 0 mm WeatherDisplay:10.37 W/m2 BKN
17:35 30.6 °C 23.3 °C 1015.1 hPa Calm     65% 0 mm WeatherDisplay:10.37 W/m2 BKN
17:40 30.7 °C 22.8 °C 1015.1 hPa Calm   3.2 km/h 63% 0 mm WeatherDisplay:10.37 W/m2 BKN
17:45 30.8 °C 23.2 °C 1015.1 hPa Calm   3.2 km/h 64% 0 mm WeatherDisplay:10.37 W/m2 BKN
17:50 30.9 °C 23.6 °C 1015.1 hPa Calm   3.2 km/h 65% 0 mm WeatherDisplay:10.37 W/m2 BKN
17:55 30.8 °C 23.2 °C 1015.1 hPa Calm     64% 0 mm WeatherDisplay:10.37 W/m2 BKN
18:00 30.7 °C 23.4 °C 1015.1 hPa Calm   1.6 km/h 65% 0 mm WeatherDisplay:10.37 W/m2 BKN
18:05 30.7 °C 23.3 °C 1015.5 hPa Calm   1.6 km/h 65% 0 mm WeatherDisplay:10.37 W/m2 BKN
18:10 30.6 °C 23.5 °C 1015.1 hPa Calm     66% 0 mm WeatherDisplay:10.37 W/m2 BKN
18:15 30.4 °C 23.3 °C 1015.1 hPa Calm     66% 0 mm WeatherDisplay:10.37 W/m2 SCT
18:20 30.3 °C 22.9 °C 1015.1 hPa Calm   1.6 km/h 65% 0 mm WeatherDisplay:10.37 W/m2 SCT
18:25 30.2 °C 23.3 °C 1015.1 hPa Calm   3.2 km/h 67% 0 mm WeatherDisplay:10.37 W/m2 SCT
18:30 30.1 °C 23 °C 1015.1 hPa Calm   1.6 km/h 66% 0 mm WeatherDisplay:10.37 W/m2 SCT
18:35 30 °C 22.9 °C 1015.5 hPa Calm     66% 0 mm WeatherDisplay:10.37 W/m2 SCT
18:40 29.9 °C 23.3 °C 1015.5 hPa Calm     68% 0 mm WeatherDisplay:10.37 W/m2 SCT
18:45 29.8 °C 23.5 °C 1015.5 hPa Calm   1.6 km/h 69% 0 mm WeatherDisplay:10.37 W/m2 SCT
18:50 29.7 °C 23.4 °C 1015.5 hPa Calm     69% 0 mm WeatherDisplay:10.37 W/m2 SCT
19:00 29.6 °C 23.3 °C 1015.5 hPa Calm   1.6 km/h 69% 0 mm WeatherDisplay:10.37 W/m2 SCT
19:05 29.6 °C 23.5 °C 1015.5 hPa Calm     70% 0 mm WeatherDisplay:10.37 W/m2 SCT
19:10 29.5 °C 23.7 °C 1015.8 hPa Calm   1.6 km/h 71% 0 mm WeatherDisplay:10.37 W/m2 SCT
19:15 29.4 °C 23.1 °C 1015.8 hPa Calm     69% 0 mm WeatherDisplay:10.37 W/m2 SCT
19:20 29.3 °C 23.5 °C 1015.8 hPa Calm     71% 0 mm WeatherDisplay:10.37 W/m2 SCT
19:25 29.3 °C 23.4 °C 1015.8 hPa Calm   1.6 km/h 71% 0 mm WeatherDisplay:10.37 W/m2 SCT
19:30 29.2 °C 23.6 °C 1015.8 hPa Calm     72% 0 mm WeatherDisplay:10.37 W/m2 SCT
19:35 29.1 °C 23.5 °C 1015.8 hPa Calm     72% 0 mm WeatherDisplay:10.37 W/m2 SCT
19:40 28.9 °C 23.6 °C 1015.8 hPa Calm     73% 0 mm WeatherDisplay:10.37 W/m2 SCT
19:45 28.8 °C 23.5 °C 1015.8 hPa Calm     73% 0 mm WeatherDisplay:10.37 W/m2 SCT
19:50 28.7 °C 23.3 °C 1015.8 hPa Calm     73% 0 mm WeatherDisplay:10.37 W/m2 SCT
19:55 28.6 °C 23.2 °C 1015.8 hPa Calm     73% 0 mm WeatherDisplay:10.37 W/m2 SCT
20:00 28.5 °C 23.6 °C 1015.8 hPa Calm   1.6 km/h 75% 0 mm WeatherDisplay:10.37 W/m2 SCT
20:05 28.4 °C 23.3 °C 1015.8 hPa Calm     74% 0 mm WeatherDisplay:10.37 W/m2 SCT
20:10 28.3 °C 23.3 °C 1016.1 hPa Calm     74% 0 mm WeatherDisplay:10.37 W/m2 SCT
20:15 28.3 °C 23.4 °C 1016.1 hPa Calm     75% 0 mm WeatherDisplay:10.37 W/m2 SCT
20:20 28.2 °C 23.3 °C 1016.1 hPa Calm     75% 0 mm WeatherDisplay:10.37 W/m2 SCT
20:25 28 °C 23.4 °C 1016.1 hPa Calm     76% 0 mm WeatherDisplay:10.37 W/m2 SCT
20:30 27.9 °C 23.3 °C 1016.1 hPa Calm     76% 0 mm WeatherDisplay:10.37 W/m2 SCT
20:35 27.8 °C 23.2 °C 1016.1 hPa Calm   1.6 km/h 76% 0 mm WeatherDisplay:10.37 W/m2 SCT
20:40 27.7 °C 23.3 °C 1016.1 hPa Calm     77% 0 mm WeatherDisplay:10.37 W/m2 SCT
20:45 27.6 °C 23.2 °C 1016.5 hPa Calm     77% 0 mm WeatherDisplay:10.37 W/m2 SCT
20:50 27.5 °C 23.1 °C 1016.5 hPa Calm     77% 0 mm WeatherDisplay:10.37 W/m2 SCT
20:55 27.4 °C 23.2 °C 1016.5 hPa Calm     78% 0 mm WeatherDisplay:10.37 W/m2 SCT
21:00 27.3 °C 23.1 °C 1016.5 hPa Calm     78% 0 mm WeatherDisplay:10.37 W/m2 SCT
21:05 27.2 °C 23.3 °C 1016.5 hPa Calm     79% 0 mm WeatherDisplay:10.37 W/m2 SCT
21:10 27.1 °C 23.3 °C 1016.5 hPa Calm     80% 0 mm WeatherDisplay:10.37 W/m2 SCT
21:15 27 °C 23.2 °C 1016.8 hPa Calm     80% 0 mm WeatherDisplay:10.37 W/m2 FEW
21:20 26.8 °C 23.1 °C 1016.8 hPa Calm     80% 0 mm WeatherDisplay:10.37 W/m2 FEW
21:25 26.7 °C 23.2 °C 1016.8 hPa Calm     81% 0 mm WeatherDisplay:10.37 W/m2 FEW
21:30 26.7 °C 23.1 °C 1016.8 hPa Calm     81% 0 mm WeatherDisplay:10.37 W/m2 FEW
21:35 26.6 °C 23.1 °C 1016.8 hPa Calm     81% 0 mm WeatherDisplay:10.37 W/m2 FEW
21:45 26.5 °C 22.9 °C 1017.2 hPa Calm     81% 0 mm WeatherDisplay:10.37 W/m2 FEW
21:50 26.4 °C 23.1 °C 1017.2 hPa Calm     82% 0 mm WeatherDisplay:10.37 W/m2 FEW
21:55 26.3 °C 23.1 °C 1017.2 hPa Calm     82% 0 mm WeatherDisplay:10.37 W/m2 FEW
22:00 26.3 °C 23 °C 1017.5 hPa Calm     82% 0 mm WeatherDisplay:10.37 W/m2 FEW
22:05 26.3 °C 22.9 °C 1017.5 hPa Calm     82% 0 mm WeatherDisplay:10.37 W/m2 FEW
22:10 26.2 °C 23.1 °C 1017.8 hPa Calm     83% 0 mm WeatherDisplay:10.37 W/m2 FEW
22:15 26.2 °C 23.1 °C 1017.8 hPa Calm     83% 0 mm WeatherDisplay:10.37 W/m2 FEW
22:20 26.1 °C 23 °C 1017.8 hPa Calm     83% 0 mm WeatherDisplay:10.37 W/m2 FEW
22:25 26.1 °C 23.2 °C 1017.8 hPa Calm     84% 0 mm WeatherDisplay:10.37 W/m2 FEW
22:30 26 °C 23.1 °C 1018.2 hPa Calm     84% 0 mm WeatherDisplay:10.37 W/m2 FEW
22:35 25.9 °C 23.1 °C 1018.2 hPa Calm     84% 0 mm WeatherDisplay:10.37 W/m2 FEW
22:40 25.8 °C 22.9 °C 1018.2 hPa Calm     84% 0 mm WeatherDisplay:10.37 W/m2 FEW
22:45 25.8 °C 23.1 °C 1018.2 hPa Calm     85% 0 mm WeatherDisplay:10.37 W/m2 FEW
22:50 25.7 °C 23 °C 1018.2 hPa Calm     85% 0 mm WeatherDisplay:10.37 W/m2 FEW
22:55 25.7 °C 22.9 °C 1018.2 hPa Calm     85% 0 mm WeatherDisplay:10.37 W/m2 FEW
23:00 25.7 °C 23.1 °C 1018.2 hPa Calm     86% 0 mm WeatherDisplay:10.37 W/m2 FEW
23:05 25.6 °C 23.1 °C 1018.2 hPa Calm     86% 0 mm WeatherDisplay:10.37 W/m2 FEW
23:10 25.6 °C 23.1 °C 1018.2 hPa Calm     86% 0 mm WeatherDisplay:10.37 W/m2 FEW
23:15 25.6 °C 23.1 °C 1018.2 hPa Calm     86% 0 mm WeatherDisplay:10.37 W/m2 FEW
23:20 25.5 °C 23 °C 1018.2 hPa Calm     86% 0 mm WeatherDisplay:10.37 W/m2 FEW
23:25 25.5 °C 23 °C 1018.2 hPa Calm     86% 0 mm WeatherDisplay:10.37 W/m2 FEW
23:30 25.5 °C 23 °C 1018.2 hPa Calm     86% 0 mm WeatherDisplay:10.37 W/m2 FEW
23:35 25.5 °C 23 °C 1017.8 hPa Calm     86% 0 mm WeatherDisplay:10.37 W/m2 FEW
23:40 25.4 °C 22.9 °C 1017.8 hPa Calm     86% 0 mm WeatherDisplay:10.37 W/m2 FEW
23:45 25.4 °C 22.9 °C 1017.8 hPa Calm     86% 0 mm WeatherDisplay:10.37 W/m2 FEW
23:50 25.3 °C 22.8 °C 1017.8 hPa Calm     86% 0 mm WeatherDisplay:10.37 W/m2 FEW
23:55 25.3 °C 22.8 °C 1017.8 hPa Calm     86% 0 mm WeatherDisplay:10.37 W/m2 FEW
Piedmont Bend
Compliments of Weather Underground - 4 mb